Location: Doughton (historical)
(41.1659°N, 80.5920°W)
Time: 08:09:19
(UTC+00:00)

Daily predictions for brighter satellites

Satellite Brightness Start Highest point End
(mag) Time Altitude Azimuth Time Altitude Azimuth Time Altitude Azimuth
Cosmos 1346 Rocket 4.3 12:00:54 10° WSW 12:03:18 16° WNW 12:05:44 10° NNW
Cosmos 1378 Rocket 3.6 12:00:06 10° N 12:04:33 86° W 12:08:59 10° S
Cosmos 1844 Rocket 2.7 12:00:36 10° SW 12:06:07 62° WNW 12:11:39 10° NNE
NOSS 3-2 (A) 3.4 12:00:28 10° SW 12:06:09 86° WNW 12:12:36 10° NE
CZ-4B R/B 3.9 12:02:04 10° N 12:06:59 32° WNW 12:11:55 10° SW
IRIDIUM 114 4.3 12:06:59 10° N 12:12:12 72° W 12:17:22 10° S
CZ-3 Stage 3 4.4 12:05:49 10° WSW 12:16:54 32° SSW 12:20:22 10° SE
Cosmos 1992 Rocket 4.2 22:13:56 10° N 22:19:02 50° ENE 22:24:05 10° SE
PSLV R/B 4.0 22:16:53 10° NNE 22:21:01 62° ESE 22:25:03 10° S
Cosmos 1500 3.2 22:18:30 10° N 22:22:12 55° E 22:25:52 10° SSE
FALCON 9 DEB 3.2 22:19:08 10° SW 22:22:37 75° SE 22:26:06 10° NE
BREEZE-M DEB (TANK) 3.2 22:18:35 10° WNW 22:24:36 37° N 22:27:13 10° E
OAO 2 Rocket 4.3 22:21:18 10° WSW 22:25:56 41° S 22:30:40 10° ESE
Cosmos 2237 Rocket 2.2 22:21:13 10° SSW 22:26:54 76° ESE 22:32:35 10° NNE
IRS-1C Rocket 4.2 22:22:46 10° SSE 22:27:54 58° ENE 22:33:05 10° N
Cosmos 2333 Rocket 3.4 22:23:05 10° SW 22:28:28 41° WNW 22:33:54 10° N
CORIOLIS 4.4 22:25:04 10° SE 22:30:15 47° ENE 22:35:27 10° N
Okean-O 3.4 22:28:07 10° SE 22:31:56 29° ENE 22:35:45 10° N
Helios 1A Rocket 3.9 22:28:03 10° S 22:32:03 52° W 22:36:04 10° NNW
ATLAS 3B R/B 4.5 22:29:37 10° NW 22:35:41 37° WSW 22:41:55 10° S
USA 267 3.3 22:30:41 10° ESE 22:37:07 62° NE 22:43:33 10° NW
Cosmos 1908 Rocket 4.1 22:33:43 10° N 22:37:49 37° ENE 22:41:51 10° SE
Cosmos 2219 Rocket 3.6 22:32:48 10° WSW 22:37:54 35° WNW 22:43:03 10° N
Cosmos 1092 Rocket 4.2 22:33:38 10° SSE 22:39:40 50° E 22:45:40 10° NNE
H-2A R/B 2.6 22:37:56 10° SSE 22:41:33 58° ENE 22:45:11 10° N
COSMO-SKYMED 1 3.7 22:40:23 10° NE 22:43:55 24° E 22:47:27 10° SSE
Cosmos 1441 Rocket 4.1 22:41:21 10° NNE 22:44:35 26° ENE 22:47:45 10° SE
Okean 1-7 3.8 22:41:57 10° SSE 22:45:48 32° E 22:49:42 10° NNE
YAOGAN 1 4.0 22:45:01 10° ESE 22:47:42 16° ENE 22:50:24 10° NNE
Cosmos 1943 Rocket 3.7 22:45:42 10° NNE 22:48:41 14° NE 22:50:06 13° ENE
STARLINK-52 3.2 22:45:51 10° SW 22:49:21 79° NW 22:52:12 15° NE
SMAP 3.0 22:44:57 10° SSE 22:49:37 83° ENE 22:54:17 10° N
OAO 3 Rocket 4.2 22:45:59 10° WSW 22:50:21 39° S 22:54:47 10° ESE
ISS -2.8 22:50:37 10° WNW 22:53:53 49° SW 22:57:07 10° SE
AQUARIUS 4.1 22:51:24 10° SSE 22:55:53 87° ENE 23:00:24 10° NNW
STARLINK-29 3.5 22:54:03 10° WSW 22:57:32 59° NW 23:00:06 17° NE
Cosmos 1980 4.3 22:52:49 10° SW 22:58:21 57° WNW 23:03:56 10° NNE
Genesis I 3.6 22:56:28 10° NNW 23:00:08 38° NE 23:03:43 10° ESE
Cosmos 1733 Rocket 4.3 22:56:02 10° NNW 23:00:13 44° W 23:04:24 10° SSW
Meteor 1-27 Rocket 4.3 22:55:40 10° SSW 23:01:20 63° WNW 23:07:10 10° N
Meteor 1-11 Rocket 4.5 22:56:41 10° NNW 23:02:35 60° W 23:08:22 10° S
STARLINK-60 4.3 23:00:26 10° W 23:03:33 34° NNW 23:05:45 16° NNE
Abrixas rocket 4.0 23:02:13 10° S 23:04:06 15° SE 23:04:47 14° ESE
Cosmos 1666 2.5 23:02:41 10° N 23:06:26 78° E 23:10:09 10° S
Cosmos 1190 Rocket 4.3 23:03:32 10° S 23:08:28 46° ESE 23:12:35 15° NE
Cosmos 2297 3.8 23:03:49 10° NNW 23:09:22 50° ENE 23:14:51 10° SE
CZ-4C R/B 3.9 23:09:34 10° SE 23:10:27 11° ESE 23:10:27 11° ESE
Cosmos 1536 3.5 23:07:54 10° NNW 23:11:51 57° W 23:15:45 10° S
Cosmos 921 Rocket 3.1 23:12:52 10° N 23:17:05 52° ENE 23:21:20 10° SSE
Cosmos 1428 Rocket 4.5 23:12:26 10° S 23:18:28 62° E 23:24:37 10° NNE
Cosmos 292 Rocket 3.9 23:13:44 10° NNW 23:18:37 82° WSW 23:23:27 10° SSE
Lacrosse 5 rocket 3.6 23:18:29 10° WNW 23:21:07 16° NNW 23:23:28 11° NNE
BREEZE-M DEB (TANK) 3.8 23:22:02 10° WNW 23:24:02 27° SW 23:26:17 10° SSE
Cosmos 1553 Rocket 4.2 23:21:24 10° N 23:27:34 48° ENE 23:33:44 10° SSE
Cosmos 614 Rocket 3.8 23:23:46 10° SSW 23:28:51 87° ESE 23:33:05 15° NNE
SL-4 R/B 3.7 23:26:21 10° NW 23:29:04 18° N 23:29:38 17° NNE
Meteor 1-18 Rocket 4.2 23:23:32 10° S 23:29:10 63° E 23:34:45 10° NNE
Lacrosse 5 3.3 23:25:49 10° SSE 23:29:29 20° ESE 23:29:35 20° ESE
ATLAS 5 CENTAUR R/B 3.1 23:28:23 10° W 23:29:53 16° NW 23:30:30 14° NNW
Okean 1 3.2 23:26:08 10° S 23:30:06 70° E 23:32:39 21° NNE
Okean 3 4.5 23:26:56 10° SSE 23:29:40 27° ESE 23:29:40 27° ESE
SKYMED 2 3.4 23:28:12 12° NNE 23:32:13 82° ESE 23:36:33 10° S
Cosmos 1782 Rocket 3.4 23:28:20 10° N 23:32:42 84° E 23:37:02 10° S
Shenzhou-11 Module 2.2 23:30:07 10° W 23:32:48 52° SSW 23:33:04 50° S
Cosmos 1174 4.4 23:28:30 10° SW 23:33:41 65° WNW 23:36:13 23° NNE
CZ-4 R/B 1.2 23:30:27 10° SSE 23:34:17 61° ENE 23:38:06 10° N
YAOGAN 6 2.4 23:32:11 10° SSE 23:35:42 88° ENE 23:39:18 10° N
Cosmos 1743 2.6 23:32:02 10° N 23:35:54 71° E 23:39:45 10° SSE
Cosmos 2221 Rocket 3.7 23:32:44 10° SSE 23:37:03 50° E 23:38:17 38° NE
Cosmos 2026 Rocket 4.0 23:31:27 10° S 23:37:31 82° W 23:43:36 10° N
Meteor 2-9 Rocket 4.5 23:32:39 10° N 23:38:17 45° ENE 23:43:47 10° SSE
Okean 2 Rocket 4.1 23:35:00 10° N 23:41:08 28° SE 23:43:32 10° SSE
Sich 1 Rocket 3.4 23:35:36 10° N 23:40:00 76° E 23:44:22 10° SSE
NOAA 11 4.4 23:35:18 10° SE 23:40:28 46° ENE 23:45:41 10° N
Envisat 3.6 23:40:05 10° S 23:45:03 57° W 23:50:05 10° NNW
Cosmos 1943 4.5 23:40:34 10° SSE 23:43:35 22° SE 23:43:35 22° SE
USA 215 4.5 23:42:50 17° NNE 23:46:49 31° NNW 23:52:22 10° W
Cosmos 1140 Rocket 3.3 23:43:49 10° SSW 23:48:56 86° ESE 23:51:36 29° NNE
Centaur D-1A AC-31 3.6 23:46:36 10° SW 23:50:03 23° SSE 23:55:28 14° ESE
BREEZE-M R/B 4.1 23:48:32 10° NW 23:51:37 25° N 23:51:37 25° N
FengYun 1-2 T 4.4 23:47:51 10° S 23:53:18 70° WSW 23:58:48 10° NNW
